This is the latest recevied weather packets stored in our database for station/object SQ5DCP-1. If no packets are shown the sender has not sent any weather packets the latest 1 day(s).
| Time | Temp. | Humidity | Pressure | Rain* | Wind** | Luminosity | Snow |
|---|---|---|---|---|---|---|---|
| 1777991118 | 26.11° C | 24% | 1008.1 hPa | 0 mm | 2.68 m/s, 193° | - | - |
| 1777990816 | 26.11° C | 23% | 1008.1 hPa | 0 mm | 3.13 m/s, 180° | - | - |
| 1777990534 | 26.67° C | 23% | 1008.1 hPa | 0 mm | 2.24 m/s, 183° | - | - |
| 1777990232 | 26.67° C | 23% | 1008.2 hPa | 0 mm | 2.24 m/s, 228° | - | - |
| 1777989930 | 26.67° C | 24% | 1008.1 hPa | 0 mm | 2.24 m/s, 178° | - | - |
| 1777989628 | 26.67° C | 24% | 1008.2 hPa | 0 mm | 1.79 m/s, 194° | - | - |
| 1777989326 | 26.67° C | 24% | 1008.3 hPa | 0 mm | 2.24 m/s, 205° | - | - |
| 1777989025 | 26.67° C | 23% | 1008.2 hPa | 0 mm | 2.24 m/s, 211° | - | - |
| 1777988723 | 26.67° C | 23% | 1008.3 hPa | 0 mm | 1.79 m/s, 183° | - | - |
| 1777988421 | 27.22° C | 22% | 1008.3 hPa | 0 mm | 2.24 m/s, 200° | - | - |
| 1777988119 | 27.22° C | 23% | 1008.4 hPa | 0 mm | 2.68 m/s, 190° | - | - |
| 1777987849 | 27.22° C | 24% | 1008.2 hPa | 0 mm | 1.34 m/s, 223° | - | - |
| 1777987818 | 27.22° C | 24% | 1008.2 hPa | 0 mm | 1.34 m/s, 223° | - | - |
| 1777987536 | 27.22° C | 24% | 1008.4 hPa | 0 mm | 1.34 m/s, 235° | - | - |
| 1777987234 | 26.67° C | 24% | 1008.4 hPa | 0 mm | 0.89 m/s, 196° | - | - |
| 1777986932 | 26.67° C | 24% | 1008.4 hPa | 0 mm | 1.34 m/s, 216° | - | - |
| 1777986631 | 26.67° C | 25% | 1008.6 hPa | 0 mm | 1.79 m/s, 166° | - | - |
| 1777986328 | 26.67° C | 25% | 1008.6 hPa | 0 mm | 2.24 m/s, 193° | - | - |
| 1777986026 | 26.67° C | 25% | 1008.6 hPa | 0 mm | 1.79 m/s, 224° | - | - |
| 1777985724 | 27.22° C | 25% | 1008.6 hPa | 0 mm | 2.68 m/s, 202° | - | - |
| 1777985422 | 26.67° C | 26% | 1008.7 hPa | 0 mm | 2.68 m/s, 174° | - | - |
| 1777985119 | 26.67° C | 27% | 1008.6 hPa | 0 mm | 1.79 m/s, 148° | - | - |
| 1777984861 | 26.67° C | 27% | 1008.7 hPa | 0 mm | 1.34 m/s, 172° | - | - |
| 1777984818 | 26.67° C | 27% | 1008.7 hPa | 0 mm | 1.34 m/s, 172° | - | - |
| 1777984516 | 26.67° C | 27% | 1008.9 hPa | 0 mm | 1.34 m/s, 197° | - | - |
* Rain latest hour (hover to see other rain measurements)
** Current wind speed in m/s (hover to see current wind gust speed)